Frederick, MD

1:52 PM EDT on April 29, 2017 (GMT -0400)
Frederick Municipal

Weather History for KFDK - March, 2012

Change the Weather History Date:

Monday, March 5, 2012

  Actual Average (KHGR) Record (KHGR)
Temperature  
Mean Temperature 34 °F -  
Max Temperature 42 °F 44 °F 69 °F (2004)
Min Temperature 26 °F 27 °F 11 °F (2015)
Degree Days  
Heating Degree Days 31    
Moisture  
Dew Point 24 °F    
Average Humidity 67    
Maximum Humidity 93    
Minimum Humidity 48    
Precipitation  
Precipitation 0.00 in - - ()
Sea Level Pressure  
Sea Level Pressure 30.11 in    
Wind  
Wind Speed 8 mph (West)    
Max Wind Speed 20 mph    
Max Gust Speed 25 mph    
Visibility 10 miles    
Events Snow    
Averages and records for this station are not official NWS values.
T = Trace of Precipitation, MM = Missing Value Source: NWS Daily Summary

Daily Weather History Graph

Daily Weather History Graph

Search for Another Location

Airport or City:

Trip Planner

Search our weather history database for the weather conditions in past years. The results will help you decide how hot, cold, wet, or windy it might be!

Date:

Astronomy

Mar. 05, 2012 Rise Set
Actual Time 6:35 AM EST 6:06 PM EST
Civil Twilight 6:08 AM EST 6:33 PM EST
Nautical Twilight 5:37 AM EST 7:04 PM EST
Astronomical Twilight 5:06 AM EST 7:35 PM EST
Moon 3:23 PM EST (3/5) 4:33 AM EST (3/5)
Length of Visible Light 12h 24m
Length of Day
11h 30m
Waxing Gibbous, 91% of the Moon is Illuminated
Mar 5
Waxing Gibbous
Mar 8
Full
Mar 14
Last Quarter
Mar 22
New
Mar 30
First Quarter

Hourly Weather History & Observations

Time (EST) Temp. Windchill Dew Point Humidity Pressure Visibility Wind Dir Wind Speed Gust Speed Precip Events Conditions
12:00 AM 32.0 °F 24.2 °F 24.8 °F 75% 29.92 in 10.0 mi WSW 9.2 mph - N/A   Clear
12:20 AM 32.0 °F 24.2 °F 24.8 °F 75% 29.92 in 10.0 mi WSW 9.2 mph - N/A   Clear
12:40 AM 32.0 °F 25.6 °F 24.8 °F 75% 29.92 in 10.0 mi SW 6.9 mph - N/A   Clear
1:05 AM 32.0 °F 24.8 °F 24.8 °F 75% 29.93 in 10.0 mi WSW 8.1 mph - N/A   Clear
1:25 AM 32.0 °F 24.8 °F 24.8 °F 75% 29.94 in 10.0 mi WSW 8.1 mph - N/A   Clear
1:45 AM 32.0 °F 24.8 °F 24.8 °F 75% 29.93 in 10.0 mi WSW 8.1 mph - N/A   Clear
2:05 AM 32.0 °F 24.8 °F 24.8 °F 75% 29.94 in 10.0 mi SW 8.1 mph - N/A   Clear
2:30 AM 32.0 °F 24.8 °F 24.8 °F 75% 29.94 in 10.0 mi SSW 8.1 mph - N/A   Clear
2:50 AM 32.0 °F 25.6 °F 24.8 °F 75% 29.93 in 10.0 mi South 6.9 mph - N/A   Clear
3:10 AM 32.0 °F 25.6 °F 23.0 °F 69% 29.93 in 10.0 mi SW 6.9 mph - N/A   Clear
3:30 AM 32.0 °F 27.5 °F 23.0 °F 69% 29.94 in 10.0 mi SW 4.6 mph - N/A   Clear
3:55 AM 32.0 °F 24.8 °F 23.0 °F 69% 29.94 in 10.0 mi SW 8.1 mph - N/A   Clear
4:15 AM 32.0 °F 24.2 °F 23.0 °F 69% 29.94 in 10.0 mi West 9.2 mph - N/A   Clear
4:35 AM 30.2 °F 23.4 °F 23.0 °F 75% 29.94 in 10.0 mi WSW 6.9 mph - N/A   Clear
5:00 AM 30.2 °F 21.9 °F 24.8 °F 80% 29.97 in 10.0 mi WSW 9.2 mph - N/A   Clear
5:20 AM 30.2 °F - 24.8 °F 80% 29.97 in 10.0 mi Calm Calm - N/A   Clear
5:40 AM 28.4 °F - 23.0 °F 80% 29.97 in 10.0 mi Calm Calm - N/A   Clear
6:00 AM 26.6 °F - 24.8 °F 93% 29.97 in 10.0 mi Calm Calm - N/A   Clear
6:25 AM 28.4 °F 24.6 °F 24.8 °F 86% 29.98 in 10.0 mi ESE 3.5 mph - N/A   Clear
6:45 AM 28.4 °F - 24.8 °F 86% 29.99 in 10.0 mi Calm Calm - N/A   Clear
7:05 AM 26.6 °F 22.6 °F 24.8 °F 93% 30.00 in 10.0 mi SE 3.5 mph - N/A   Clear
7:25 AM 28.4 °F - 26.6 °F 93% 30.01 in 10.0 mi Calm Calm - N/A   Clear
7:50 AM 32.0 °F - 28.4 °F 87% 30.02 in 10.0 mi Calm Calm - N/A   Scattered Clouds
8:10 AM 32.0 °F - 28.4 °F 87% 30.04 in 10.0 mi Calm Calm - N/A   Overcast
8:30 AM 32.0 °F - 28.4 °F 87% 30.05 in 10.0 mi Calm Calm - N/A   Overcast
8:50 AM 33.8 °F - 28.4 °F 81% 30.05 in 10.0 mi Calm Calm - N/A   Overcast
9:15 AM 33.8 °F - 28.4 °F 81% 30.05 in 10.0 mi Calm Calm - N/A   Overcast
9:35 AM 35.6 °F - 28.4 °F 75% 30.06 in 10.0 mi Calm Calm - N/A   Overcast
9:55 AM 35.6 °F - 26.6 °F 70% 30.07 in 10.0 mi Calm Calm - N/A   Overcast
10:15 AM 37.4 °F 34.9 °F 26.6 °F 65% 30.07 in 10.0 mi SSW 3.5 mph - N/A   Overcast
10:40 AM 37.4 °F 32.8 °F 26.6 °F 65% 30.08 in 10.0 mi WNW 5.8 mph - N/A   Overcast
11:00 AM 37.4 °F 31.4 °F 26.6 °F 65% 30.09 in 10.0 mi NW 8.1 mph - N/A   Overcast
11:20 AM 37.4 °F 30.8 °F 28.4 °F 70% 30.10 in 10.0 mi West 9.2 mph - N/A   Overcast
11:40 AM 37.4 °F 32.8 °F 28.4 °F 70% 30.10 in 10.0 mi West 5.8 mph - N/A   Mostly Cloudy
12:05 PM 37.4 °F 33.8 °F 28.4 °F 70% 30.10 in 10.0 mi WSW 4.6 mph - N/A   Mostly Cloudy
12:25 PM 39.2 °F 35.9 °F 28.4 °F 65% 30.10 in 10.0 mi SSW 4.6 mph - N/A   Mostly Cloudy
12:45 PM 39.2 °F 35.0 °F 28.4 °F 65% 30.10 in 10.0 mi SSW 5.8 mph - N/A   Overcast
1:05 PM 41.0 °F 35.8 °F 24.8 °F 53% 30.10 in 10.0 mi NNW 8.1 mph - N/A   Overcast
1:30 PM 42.8 °F 38.6 °F 26.6 °F 53% 30.10 in 10.0 mi NW 6.9 mph - N/A   Overcast
1:50 PM 42.8 °F 36.2 °F 24.8 °F 49% 30.11 in 10.0 mi North 12.7 mph - N/A   Overcast
2:10 PM 41.0 °F 34.3 °F 26.6 °F 57% 30.12 in 10.0 mi NW 11.5 mph 17.3 mph N/A   Overcast
2:35 PM 41.0 °F 33.5 °F 26.6 °F 57% 30.14 in 10.0 mi NW 13.8 mph 19.6 mph N/A   Overcast
2:55 PM 37.4 °F 28.5 °F 30.2 °F 75% 30.17 in 10.0 mi WNW 15.0 mph 25.3 mph N/A Snow Light Snow
3:15 PM 41.0 °F 33.9 °F 28.4 °F 61% 30.17 in 10.0 mi NW 12.7 mph 20.7 mph N/A   Overcast
3:35 PM 41.0 °F 33.5 °F 26.6 °F 57% 30.18 in 10.0 mi NW 13.8 mph 21.9 mph N/A   Mostly Cloudy
4:00 PM 41.0 °F 33.9 °F 26.6 °F 57% 30.19 in 10.0 mi NW 12.7 mph - N/A   Clear
4:20 PM 41.0 °F 31.9 °F 23.0 °F 49% 30.20 in 10.0 mi WNW 19.6 mph 25.3 mph N/A   Scattered Clouds
4:40 PM 41.0 °F 34.3 °F 23.0 °F 49% 30.22 in 10.0 mi NNW 11.5 mph 24.2 mph N/A   Scattered Clouds
5:00 PM 39.2 °F 30.5 °F 21.2 °F 49% 30.23 in 10.0 mi NW 16.1 mph 24.2 mph N/A   Clear
5:25 PM 37.4 °F 27.8 °F 19.4 °F 48% 30.26 in 10.0 mi WNW 17.3 mph 24.2 mph N/A   Clear
5:45 PM 37.4 °F 30.3 °F 19.4 °F 48% 30.28 in 10.0 mi WNW 10.4 mph 25.3 mph N/A   Clear
6:05 PM 35.6 °F 25.9 °F 19.4 °F 52% 30.29 in 10.0 mi WNW 16.1 mph 23.0 mph N/A   Clear
6:25 PM 35.6 °F 26.2 °F 19.4 °F 52% 30.30 in 10.0 mi WNW 15.0 mph 23.0 mph N/A   Clear
6:50 PM 33.8 °F 22.8 °F 17.6 °F 52% 30.32 in 10.0 mi WNW 18.4 mph 24.2 mph N/A   Clear
7:10 PM 33.8 °F 23.2 °F 17.6 °F 52% 30.34 in 10.0 mi WNW 17.3 mph 23.0 mph N/A   Clear
7:30 PM 33.8 °F 22.8 °F 17.6 °F 52% 30.36 in 10.0 mi NW 18.4 mph - N/A   Clear
7:50 PM 32.0 °F 22.5 °F 17.6 °F 55% 30.37 in 10.0 mi NW 12.7 mph 17.3 mph N/A   Clear
8:15 PM 32.0 °F 25.6 °F 17.6 °F 55% 30.39 in 10.0 mi NW 6.9 mph - N/A   Clear
8:35 PM 32.0 °F 26.4 °F 17.6 °F 55% 30.41 in 10.0 mi NW 5.8 mph - N/A   Clear
8:55 PM 32.0 °F 25.6 °F 17.6 °F 55% 30.42 in 10.0 mi NNW 6.9 mph 24.2 mph N/A   Clear
9:15 PM 32.0 °F 24.8 °F 17.6 °F 55% 30.43 in 10.0 mi NW 8.1 mph - N/A   Clear
9:40 PM 32.0 °F 23.0 °F 17.6 °F 55% 30.44 in 10.0 mi NW 11.5 mph - N/A   Clear
10:00 PM 32.0 °F 23.0 °F 17.6 °F 55% 30.45 in 10.0 mi NW 11.5 mph - N/A   Clear
10:20 PM 32.0 °F 23.0 °F 17.6 °F 55% 30.46 in 10.0 mi WNW 11.5 mph 18.4 mph N/A   Clear
10:40 PM 32.0 °F 23.0 °F 17.6 °F 55% 30.47 in 10.0 mi NW 11.5 mph - N/A   Clear
11:05 PM 32.0 °F 23.6 °F 17.6 °F 55% 30.48 in 10.0 mi NW 10.4 mph - N/A   Clear
11:25 PM 30.2 °F 24.3 °F 17.6 °F 60% 30.48 in 10.0 mi NNW 5.8 mph - N/A   Clear
11:45 PM 30.2 °F 25.4 °F 17.6 °F 60% 30.49 in 10.0 mi NNW 4.6 mph - N/A   Clear